Tracking 28766 objects as of 13-Apr-2024
HD Live streaming from Space Station
objects crossing your sky now

SL-8 DEB *

Track SL-8 DEB * now!
10-day predictions


NORAD ID: 3743
Int'l Code: 1965-020ES
Perigee: 1,386.8 km
Apogee: 1,807.5 km
Inclination: 56.7 °
Period: 118.0 minutes
Semi major axis: 7968 km
RCS: 0.0769 m2 (small)
Launch date: March 15, 1965
Source: Commonwealth of Independent States (former USSR) (CIS)
Launch site: TYURATAM MISSILE AND SPACE COMPLEX (TTMTR)

Note: This is SATELLITE DEBRIS
Your satellite tracking list
Your tracking list is empty




NASA's NSSDC Master Catalog

Two Line Element Set (TLE):
1 03743U 65020ES  24103.38181654 -.00000049  00000-0  31642-3 0  9999
2 03743  56.6604 105.0979 0264022 209.5167 296.2718 12.20583389476983
Source of the keplerian elements: AFSPC